TimeEEST,TemperatureF,Dew PointF,Humidity,Sea Level PressureIn,VisibilityMPH,Wind Direction,Wind SpeedMPH,Gust SpeedMPH,PrecipitationIn,Events,Conditions,WindDirDegrees,DateUTC
12:50 AM,66.2,59.0,78,29.98,6.2,Calm,Calm,-,N/A,,Scattered Clouds,0,2012-10-13 21:50:00
2:20 AM,66.2,60.8,83,30.01,6.2,Calm,Calm,-,N/A,,Mostly Cloudy,0,2012-10-13 23:20:00
2:50 AM,68.0,60.8,78,29.98,6.2,ESE,9.2,-,N/A,Rain,Light Rain,110,2012-10-13 23:50:00
3:00 AM,68,62,74,29.98,6,ESE,9.2,,,Rain,Light Rain,110,2012-10-14 00:00:00
5:50 AM,66.2,62.6,88,29.92,6.2,Calm,Calm,-,N/A,,Mostly Cloudy,0,2012-10-14 02:50:00
6:20 AM,66.2,62.6,88,29.92,6.2,Calm,Calm,-,N/A,,Mostly Cloudy,0,2012-10-14 03:20:00
6:50 AM,64.4,62.6,94,29.92,6.2,Calm,Calm,-,N/A,,Mostly Cloudy,0,2012-10-14 03:50:00
7:20 AM,64.4,60.8,88,29.92,6.2,Calm,Calm,-,N/A,,Mostly Cloudy,0,2012-10-14 04:20:00
7:50 AM,64.4,60.8,88,29.92,6.2,Calm,Calm,-,N/A,,Mostly Cloudy,0,2012-10-14 04:50:00
8:20 AM,64.4,62.6,94,29.92,6.2,Calm,Calm,-,N/A,,Mostly Cloudy,0,2012-10-14 05:20:00
8:50 AM,68.0,60.8,78,29.92,6.2,Calm,Calm,-,N/A,,Mostly Cloudy,0,2012-10-14 05:50:00
9:00 AM,68,61,73,29.94,6,Calm,Calm,,,,Scattered Clouds,,2012-10-14 06:00:00
9:20 AM,68.0,60.8,78,29.92,6.2,Calm,Calm,-,N/A,,Mostly Cloudy,0,2012-10-14 06:20:00
9:50 AM,71.6,60.8,69,29.95,6.2,Calm,Calm,-,N/A,,Mostly Cloudy,0,2012-10-14 06:50:00
10:20 AM,71.6,60.8,69,29.95,6.2,Calm,Calm,-,N/A,,Mostly Cloudy,0,2012-10-14 07:20:00
10:50 AM,77.0,64.4,65,29.95,6.2,South,11.5,-,N/A,,Mostly Cloudy,170,2012-10-14 07:50:00
11:20 AM,77.0,64.4,65,29.95,6.2,South,11.5,-,N/A,,Mostly Cloudy,170,2012-10-14 08:20:00
11:50 AM,77.0,64.4,65,29.92,6.2,South,16.1,-,N/A,,Mostly Cloudy,170,2012-10-14 08:50:00
12:20 PM,77.0,64.4,65,29.92,6.2,South,16.1,-,N/A,,Mostly Cloudy,170,2012-10-14 09:20:00
12:50 PM,77.0,66.2,69,29.95,6.2,South,13.8,-,N/A,,Mostly Cloudy,180,2012-10-14 09:50:00
1:20 PM,66.2,62.6,88,29.95,3.7,NNW,11.5,-,N/A,Rain,Rain,330,2012-10-14 10:20:00
1:50 PM,66.2,62.6,88,29.95,6.2,NE,6.9,-,N/A,,Overcast,40,2012-10-14 10:50:00
2:20 PM,66.2,62.6,88,29.95,6.2,NE,6.9,-,N/A,,Overcast,40,2012-10-14 11:20:00
2:50 PM,71.6,64.4,78,29.92,6.2,East,9.2,-,N/A,,Mostly Cloudy,80,2012-10-14 11:50:00
3:00 PM,72,65,71,29.93,6,East,9.2,,,,Partly Cloudy,80,2012-10-14 12:00:00
3:20 PM,71.6,64.4,78,29.92,6.2,East,9.2,-,N/A,,Mostly Cloudy,80,2012-10-14 12:20:00
3:50 PM,73.4,64.4,73,29.89,6.2,South,6.9,-,N/A,,Mostly Cloudy,180,2012-10-14 12:50:00
4:20 PM,62.6,60.8,94,29.89,2.5,NW,9.2,-,N/A,Rain-Thunderstorm,Light Thunderstorms and Rain,320,2012-10-14 13:20:00
4:50 PM,62.6,60.8,94,29.89,5.0,WNW,4.6,-,N/A,Rain-Thunderstorm,Light Thunderstorms and Rain,300,2012-10-14 13:50:00
5:20 PM,64.4,62.6,94,29.89,6.2,NNE,9.2,-,N/A,Rain,Light Rain,20,2012-10-14 14:20:00
5:50 PM,64.4,62.6,94,29.98,6.2,South,6.9,-,N/A,,Mostly Cloudy,190,2012-10-14 14:50:00
6:20 PM,66.2,62.6,88,29.98,6.2,South,9.2,-,N/A,Rain,Light Rain,180,2012-10-14 15:20:00
6:50 PM,64.4,62.6,94,29.98,6.2,SSE,6.9,-,N/A,Rain,Light Rain,150,2012-10-14 15:50:00
7:20 PM,64.4,62.6,94,29.98,6.2,SE,11.5,-,N/A,Rain,Light Rain,130,2012-10-14 16:20:00
7:50 PM,64.4,60.8,88,29.92,6.2,East,13.8,-,N/A,Rain,Light Rain,100,2012-10-14 16:50:00
8:20 PM,64.4,60.8,88,29.92,6.2,SE,9.2,-,N/A,,Overcast,130,2012-10-14 17:20:00
8:50 PM,64.4,60.8,88,29.89,6.2,SE,9.2,-,N/A,,Overcast,130,2012-10-14 17:50:00
9:00 PM,64,60,82,29.91,6,SE,9.2,,,,Partly Cloudy,130,2012-10-14 18:00:00
9:20 PM,64.4,60.8,88,29.89,6.2,SE,9.2,-,N/A,,Overcast,130,2012-10-14 18:20:00
9:50 PM,64.4,59.0,83,29.89,6.2,North,6.9,-,N/A,,Overcast,350,2012-10-14 18:50:00
10:20 PM,64.4,59.0,83,29.89,6.2,North,6.9,-,N/A,,Overcast,350,2012-10-14 19:20:00
10:50 PM,64.4,59.0,83,29.92,6.2,Calm,Calm,-,N/A,,Overcast,0,2012-10-14 19:50:00
11:20 PM,64.4,59.0,83,29.92,6.2,Calm,Calm,-,N/A,,Overcast,0,2012-10-14 20:20:00
11:50 PM,60.8,59.0,94,29.92,6.2,Calm,Calm,-,N/A,,Overcast,0,2012-10-14 20:50:00